Location: Topeka
(39.0480°N, 95.6780°W)
Time: 23:17:04
(UTC-05:00)

ISS - Visible Passes

Search period start: 30 April 2017 00:00
Search period end: 10 May 2017 00:00
Orbit: 401 x 409 km, 51.6° (Epoch: 01 May)

Date Brightness Start Highest point End Pass type
(mag) Time Alt. Az. Time Alt. Az. Time Alt. Az.
02 May -1.1 05:44:22 10° SSE 05:46:06 14° SE 05:47:49 10° E visible
04 May -2.5 05:35:09 10° SSW 05:38:08 34° SE 05:41:08 10° ENE visible
05 May -1.6 04:44:52 14° SSE 04:46:12 17° SE 04:48:28 10° E visible
06 May -3.9 05:27:34 14° SW 05:30:16 88° NW 05:33:33 10° NE visible
07 May -3.2 04:37:31 38° S 04:38:12 44° SE 04:41:21 10° ENE visible
08 May -1.4 03:47:24 18° E 03:47:24 18° E 03:48:49 10° E visible
08 May -2.8 05:20:03 14° W 05:22:32 36° NNW 05:25:36 10° NE visible
09 May -3.8 04:29:50 57° W 04:30:18 68° NW 04:33:34 10° NE visible
